AV279 Weather Reports


time (UTC)temp
C
wind
direction
speed
KPH
gust
KPH
rain 1hr
cm
rain 24hr
cm
rain mn
cm
humidity
%
barometer
mb
20260503231530 13 0.0 0.0 0.00 0.56 0.56 88 1010.6
20260503230540 13 225 1.6 3.2 0.00 0.56 0.56 88 1010.6
20260503225531 13 248 1.6 3.2 0.00 0.56 0.56 88 1010.7
20260503224519 13 270 1.6 3.2 0.00 0.56 0.56 87 1010.7
20260503223541 13 270 1.6 3.2 0.00 0.56 0.56 87 1010.7
20260503222530 13 203 1.6 3.2 0.00 0.56 0.56 87 1010.6
20260503221550 13 225 1.6 3.2 0.00 0.56 0.56 87 1010.5
20260503220530 13 248 3.2 4.8 0.00 0.56 0.56 87 1010.4
20260503215526 13 270 1.6 3.2 0.00 0.56 0.56 87 1010.4
20260503214541 14 248 1.6 4.8 0.00 0.56 0.56 87 1010.6
20260503213520 14 225 1.6 4.8 0.00 0.56 0.56 87 1010.6
20260503212540 14 225 3.2 3.2 0.00 0.56 0.56 87 1010.5
20260503211539 14 248 1.6 3.2 0.00 0.56 0.56 87 1010.4
20260503210552 15 0.0 0.0 0.00 0.56 0.56 87 1010.3
20260503205519 15 225 3.2 4.8 0.00 0.56 0.56 87 1010.4
20260503204530 15 248 3.2 4.8 0.00 0.56 0.56 87 1010.3
20260503203559 15 180 3.2 4.8 0.00 0.56 0.56 87 1010.4
20260503202519 15 248 3.2 4.8 0.00 0.56 0.56 87 1010.4
20260503201530 15 203 1.6 4.8 0.00 0.56 0.56 86 1010.5
20260503200519 15 225 1.6 4.8 0.00 0.56 0.56 86 1010.2
20260503195530 15 0.0 0.0 0.00 0.56 0.56 86 1010.2
20260503194519 15 0.0 0.0 0.00 0.56 0.56 86 1010.0
20260503193520 16 0.0 0.0 0.00 0.56 0.56 86 1009.9
20260503192519 16 225 1.6 3.2 0.00 0.56 0.56 85 1009.8
20260503191530 16 0.0 1.6 0.00 0.56 0.56 85 1009.8
20260503190530 16 0.0 0.0 0.00 0.56 0.56 85 1009.7
20260503185519 16 0.0 1.6 0.00 0.56 0.56 84 1009.6
20260503184727 16 180 1.6 3.2 0.00 0.56 0.56 84 1009.5
20260503183619 16 0.0 3.2 0.00 0.56 0.56 84 1009.4
20260503182619 16 180 3.2 6.4 0.00 0.56 0.56 83 1009.5
20260503181640 16 203 1.6 4.8 0.00 0.56 0.56 83 1009.4
20260503180619 16 0.0 1.6 0.00 0.56 0.56 83 1009.3
20260503175630 16 248 1.6 4.8 0.00 0.56 0.56 83 1009.3
20260503174619 16 180 1.6 1.6 0.00 0.56 0.56 82 1009.3
20260503173640 16 225 3.2 6.4 0.00 0.56 0.56 83 1009.2
20260503172640 16 0.0 1.6 0.00 0.56 0.56 83 1009.4
20260503171836 16 225 4.8 8.0 0.00 0.56 0.56 83 1009.4
20260503171319 16 0.0 1.6 0.00 0.56 0.56 83 1009.4
20260503170339 16 248 4.8 9.7 0.00 0.56 0.56 83 1009.3
20260503150839 15 113 3.2 6.4 0.05 0.56 0.56 91 1009.6
20260503130840 16 338 3.2 6.4 0.36 0.51 0.51 89 1009.4
20260503110819 20 225 4.8 8.0 0.00 0.15 0.15 72 1009.7
20260503080820 15 203 3.2 4.8 0.00 0.15 0.15 90 1009.8
20260503072819 14 180 1.6 4.8 0.00 0.15 0.15 90 1009.9
20260503071842 14 248 1.6 3.2 0.00 0.15 0.15 90 1009.9
20260503070900 14 248 1.6 3.2 0.03 0.15 0.15 90 1009.9
20260503054820 14 225 6.4 9.7 0.08 0.10 0.08 88 1009.7
20260503053840 14 203 3.2 4.8 0.05 0.08 0.05 88 1009.9
20260503052821 14 203 1.6 1.6 0.05 0.05 0.05 88 1009.8
20260503051841 14 225 4.8 9.7 0.05 0.05 0.05 87 1009.6
20260503050820 15 225 3.2 4.8 0.03 0.05 0.03 87 1009.4
20260503045821 15 225 3.2 6.4 0.03 0.05 0.03 86 1009.6
20260503044851 15 248 4.8 9.7 0.00 0.03 0.00 86 1009.5
20260503043820 15 225 1.6 4.8 0.00 0.03 0.00 86 1009.4
20260503042820 15 248 3.2 4.8 0.00 0.03 0.00 86 1009.3
20260503041851 15 225 1.6 3.2 0.00 0.03 0.00 85 1009.4
20260503040820 15 225 1.6 3.2 0.00 0.03 0.00 85 1009.4
20260503035820 15 225 3.2 4.8 0.00 0.03 0.00 85 1009.5
20260503034831 15 225 3.2 6.4 0.00 0.03 0.00 85 1009.7
20260503033831 15 225 4.8 8.0 0.00 0.03 0.00 84 1009.6
20260503032831 15 248 1.6 3.2 0.00 0.03 0.00 84 1009.6
20260503031820 15 225 1.6 3.2 0.00 0.03 0.00 84 1009.6
20260503030820 15 248 1.6 4.8 0.00 0.03 0.00 83 1009.5
20260503025831 15 225 3.2 4.8 0.00 0.03 0.00 83 1009.5
20260503024852 15 225 1.6 4.8 0.00 0.03 0.00 82 1009.5
20260503023820 15 270 3.2 3.2 0.00 0.03 0.00 82 1009.7
20260503022820 15 225 4.8 6.4 0.00 0.05 0.00 82 1009.7
20260503021820 15 0.0 1.6 0.00 0.13 0.00 81 1009.7
20260503020820 16 0.0 1.6 0.00 0.18 0.00 81 1009.9
20260503015841 16 248 1.6 4.8 0.00 0.18 0.00 81 1009.9
20260503014820 15 180 1.6 3.2 0.00 0.23 0.00 81 1010.1
20260503013830 15 203 6.4 9.7 0.00 0.25 0.00 82 1010.3
20260503012831 15 203 4.8 9.7 0.00 0.48 0.00 82 1010.3
20260503011820 15 180 3.2 8.0 0.00 0.48 0.00 82 1010.2
20260503010839 15 225 1.6 3.2 0.00 0.48 0.00 82 1010.3
20260503005820 15 180 3.2 4.8 0.00 0.51 0.00 82 1010.2
20260503004831 15 0.0 1.6 0.00 0.51 0.00 82 1010.3
20260503003820 15 203 1.6 3.2 0.00 0.51 0.00 82 1010.6
20260503002830 15 180 1.6 3.2 0.00 0.51 0.00 82 1010.5
20260503001820 15 180 1.6 4.8 0.00 0.51 0.00 81 1010.7
20260503000820 15 0.0 0.0 0.00 0.51 0.00 81 1010.7
20260502235842 16 0.0 1.6 0.00 0.51 0.51 81 1010.8
20260502234820 16 225 1.6 3.2 0.00 0.51 0.51 80 1010.9
20260502233820 16 248 3.2 4.8 0.00 0.51 0.51 80 1011.1
20260502232831 16 248 1.6 3.2 0.00 0.51 0.51 80 1011.3
20260502231831 16 225 1.6 3.2 0.00 0.51 0.51 80 1011.3